Location: Songkhla
(7.2000°N, 100.6000°E)
Time: 08:01:46
(UTC+07:00)

JAISAT 1 - Pass Details

Date: 05 October 2022
Orbit: 493 x 514 km, 97.7° (Epoch: 05 December)

Event Time Altitude Azimuth Distance (km) Brightness Sun altitude
Rises 04:15:35 0° 1° (N) 2,567 - -28.0°
Reaches altitude 10° 04:17:42 10° 354° (N) 1,690 - -27.5°
Maximum altitude 04:21:10 43° 282° (WNW) 711 - -26.6°
Drops below altitude 10° 04:24:39 10° 210° (SSW) 1,707 - -25.7°
Sets 04:26:49 0° 203° (SSW) 2,598 - -25.2°
